Location: Karwodrza
(49.9217°N, 21.0454°E)
Time: 00:43:03
(UTC+02:00)

Tiangong 2 - Pass Details

Date: 22 March 2019
Orbit: 378 x 390 km, 42.8° (Epoch: 23 April)

Event Time Altitude Azimuth Distance (km) Brightness Sun altitude
Exits shadow 04:11:26 11° 191° (S) 1,322 3.5 -14.1°
Drops below altitude 10° 04:12:04 10° 179° (S) 1,399 3.7 -14.0°
Sets 04:15:10 0° 146° (SE) 2,253 5.2 -13.5°
